When you browse on this site, cookies collect data to enhance your experience and personalize the content and advertising you see.
Visit our Privacy Policy to learn more. By continuing to use the site, you agree to this use of cookies and data.
  • In Schweiz
  • Länderverzeichnis
  • Für 7 Tage
  • Wassertemperatur
  • Wetterkarte
  • Widgets
  • user-avatar
    Anmelden

    Stündliche Wetter Abomei

    Heute, 17 Oktober, Donnerstag

    Zeit Temperatur Niederschläge Wind Luftdruck Luftfeuchtigkeit
    00:00 +24°C° 0 mm 1 m/S 739 mmHg 95%
    01:00 +24°C° 0 mm 1 m/S 739 mmHg 95%
    02:00 +24°C° 0 mm 1 m/S 738 mmHg 95%
    03:00 +24°C° 0 mm 2 m/S 738 mmHg 95%
    04:00 +24°C° 0 mm 2 m/S 738 mmHg 95%
    05:00 +24°C° 0 mm 1 m/S 738 mmHg 95%
    06:00 +24°C° 0 mm 1 m/S 739 mmHg 95%
    07:00 +26°C° 0 mm 1 m/S 739 mmHg 89%
    08:00 +27°C° 0 mm 2 m/S 739 mmHg 82%
    09:00 +29°C° 0 mm 2 m/S 740 mmHg 76%
    10:00 +30°C° 0 mm 2 m/S 739 mmHg 70%
    11:00 +32°C° 0 mm 1 m/S 739 mmHg 64%
    12:00 +33°C° 0 mm 1 m/S 739 mmHg 59%
    13:00 +33°C° 1.2 mm 1 m/S 738 mmHg 62%
    14:00 +32°C° 1.2 mm 1 m/S 737 mmHg 64%
    15:00 +32°C° 1.2 mm 1 m/S 736 mmHg 67%
    16:00 +30°C° 2.1 mm 1 m/S 737 mmHg 73%
    17:00 +28°C° 2.1 mm 2 m/S 737 mmHg 80%
    18:00 +27°C° 2.1 mm 2 m/S 737 mmHg 86%
    19:00 +26°C° 0.3 mm 2 m/S 738 mmHg 88%
    20:00 +26°C° 0.3 mm 2 m/S 738 mmHg 91%
    21:00 +25°C° 0.3 mm 2 m/S 739 mmHg 93%
    22:00 +25°C° 0.3 mm 2 m/S 739 mmHg 94%
    23:00 +25°C° 0.3 mm 1 m/S 738 mmHg 94%

    Morgen, 18 Oktober, Freitag

    Zeit Temperatur Niederschläge Wind Luftdruck Luftfeuchtigkeit
    00:00 +25°C° 0.3 mm 1 m/S 738 mmHg 95%
    01:00 +25°C° 0.2 mm 1 m/S 738 mmHg 95%
    02:00 +25°C° 0.2 mm 1 m/S 738 mmHg 95%
    03:00 +25°C° 0.2 mm 1 m/S 737 mmHg 95%
    04:00 +25°C° 3 mm 1 m/S 738 mmHg 95%
    05:00 +25°C° 3 mm 2 m/S 738 mmHg 94%
    06:00 +25°C° 3 mm 3 m/S 738 mmHg 94%
    07:00 +25°C° 0.5 mm 2 m/S 738 mmHg 92%
    08:00 +25°C° 0.5 mm 1 m/S 739 mmHg 90%
    09:00 +26°C° 0.5 mm 1 m/S 739 mmHg 88%
    10:00 +26°C° 0 mm 1 m/S 739 mmHg 88%
    11:00 +26°C° 0 mm 1 m/S 738 mmHg 88%
    12:00 +26°C° 0 mm 1 m/S 737 mmHg 87%
    13:00 +26°C° 0 mm 1 m/S 737 mmHg 87%
    14:00 +26°C° 0 mm 1 m/S 736 mmHg 87%
    15:00 +26°C° 0 mm 1 m/S 736 mmHg 86%
    16:00 +26°C° 0 mm 1 m/S 736 mmHg 87%
    17:00 +26°C° 0 mm 1 m/S 736 mmHg 88%
    18:00 +25°C° 0 mm 1 m/S 736 mmHg 89%
    19:00 +25°C° 0.1 mm 1 m/S 737 mmHg 90%
    20:00 +25°C° 0.1 mm 1 m/S 738 mmHg 91%
    21:00 +24°C° 0.1 mm 1 m/S 738 mmHg 92%
    22:00 +24°C° 0.6 mm 1 m/S 738 mmHg 93%
    23:00 +24°C° 0.6 mm 1 m/S 738 mmHg 94%

    übermorgen, 19 Oktober, Samstag

    Zeit Temperatur Niederschläge Wind Luftdruck Luftfeuchtigkeit
    00:00 +22°C° 0.6 mm 0 m/S 738 mmHg 95%
    01:00 +22°C° 0.2 mm 0 m/S 738 mmHg 95%
    02:00 +22°C° 0.2 mm 0 m/S 737 mmHg 96%
    03:00 +21°C° 0.2 mm 0 m/S 737 mmHg 96%
    04:00 +21°C° 0 mm 0 m/S 737 mmHg 96%
    05:00 +23°C° 0 mm 1 m/S 737 mmHg 96%
    06:00 +23°C° 0 mm 1 m/S 738 mmHg 96%
    07:00 +25°C° 0 mm 1 m/S 738 mmHg 91%
    08:00 +26°C° 0 mm 1 m/S 739 mmHg 86%
    09:00 +27°C° 0 mm 1 m/S 739 mmHg 81%
    10:00 +29°C° 0 mm 1 m/S 739 mmHg 76%
    11:00 +30°C° 0 mm 2 m/S 738 mmHg 70%
    12:00 +31°C° 0 mm 2 m/S 738 mmHg 64%
    13:00 +31°C° 0.1 mm 2 m/S 737 mmHg 67%
    14:00 +31°C° 0.1 mm 2 m/S 737 mmHg 69%
    15:00 +31°C° 0.1 mm 3 m/S 736 mmHg 71%
    16:00 +29°C° 2.7 mm 3 m/S 737 mmHg 78%
    17:00 +27°C° 2.7 mm 3 m/S 737 mmHg 85%
    18:00 +26°C° 2.7 mm 4 m/S 737 mmHg 91%
    19:00 +25°C° 0.3 mm 3 m/S 738 mmHg 92%
    20:00 +25°C° 0.3 mm 2 m/S 739 mmHg 93%
    21:00 +25°C° 0.3 mm 2 m/S 739 mmHg 94%
    22:00 +25°C° 0 mm 2 m/S 739 mmHg 94%
    23:00 +25°C° 0 mm 2 m/S 739 mmHg 94%

    20 Oktober, Sonntag

    Zeit Temperatur Niederschläge Wind Luftdruck Luftfeuchtigkeit
    00:00 +25°C° 0 mm 2 m/S 739 mmHg 94%
    01:00 +25°C° 0 mm 1 m/S 738 mmHg 95%
    02:00 +24°C° 0 mm 1 m/S 738 mmHg 95%
    03:00 +22°C° 0 mm 0 m/S 738 mmHg 96%
    04:00 +22°C° 0 mm 0 m/S 738 mmHg 96%
    05:00 +22°C° 0 mm 0 m/S 739 mmHg 96%
    06:00 +22°C° 0 mm 0 m/S 739 mmHg 96%
    07:00 +25°C° 0.4 mm 1 m/S 739 mmHg 93%
    08:00 +26°C° 0.4 mm 1 m/S 740 mmHg 90%
    09:00 +27°C° 0.4 mm 1 m/S 740 mmHg 87%
    10:00 +27°C° 1.5 mm 1 m/S 739 mmHg 86%
    11:00 +27°C° 1.5 mm 1 m/S 739 mmHg 86%
    12:00 +28°C° 1.5 mm 1 m/S 738 mmHg 85%
    13:00 +28°C° 0.4 mm 1 m/S 737 mmHg 83%
    14:00 +28°C° 0.4 mm 2 m/S 737 mmHg 80%
    15:00 +29°C° 0.4 mm 2 m/S 737 mmHg 77%
    16:00 +28°C° 0.8 mm 2 m/S 737 mmHg 83%
    17:00 +26°C° 0.8 mm 2 m/S 737 mmHg 88%
    18:00 +25°C° 0.8 mm 2 m/S 738 mmHg 94%
    19:00 +25°C° 0.1 mm 2 m/S 738 mmHg 94%
    20:00 +25°C° 0.1 mm 1 m/S 739 mmHg 95%
    21:00 +25°C° 0.1 mm 1 m/S 739 mmHg 95%
    22:00 +24°C° 0.1 mm 1 m/S 739 mmHg 96%
    23:00 +24°C° 0.1 mm 1 m/S 739 mmHg 96%

    21 Oktober, Montag

    Zeit Temperatur Niederschläge Wind Luftdruck Luftfeuchtigkeit
    00:00 +24°C° 0.1 mm 1 m/S 739 mmHg 97%
    01:00 +24°C° 0.3 mm 1 m/S 739 mmHg 97%
    02:00 +24°C° 0.3 mm 1 m/S 738 mmHg 97%
    03:00 +22°C° 0.3 mm 0 m/S 738 mmHg 96%
    04:00 +22°C° 0 mm 0 m/S 739 mmHg 97%
    05:00 +22°C° 0 mm 0 m/S 739 mmHg 97%
    06:00 +22°C° 0 mm 0 m/S 739 mmHg 97%
    07:00 +25°C° 0.1 mm 1 m/S 739 mmHg 91%
    08:00 +27°C° 0.1 mm 1 m/S 740 mmHg 86%
    09:00 +28°C° 0.1 mm 2 m/S 740 mmHg 80%
    10:00 +29°C° 0.2 mm 2 m/S 739 mmHg 77%
    11:00 +30°C° 0.2 mm 2 m/S 739 mmHg 74%
    12:00 +30°C° 0.2 mm 2 m/S 738 mmHg 71%
    13:00 +30°C° 0.2 mm 2 m/S 737 mmHg 71%
    14:00 +30°C° 0.2 mm 2 m/S 737 mmHg 72%
    15:00 +30°C° 0.2 mm 2 m/S 736 mmHg 73%
    16:00 +29°C° 0.2 mm 2 m/S 736 mmHg 78%
    17:00 +28°C° 0.2 mm 2 m/S 736 mmHg 82%
    18:00 +27°C° 0.2 mm 1 m/S 736 mmHg 86%
    19:00 +26°C° 0 mm 1 m/S 737 mmHg 88%
    20:00 +26°C° 0 mm 1 m/S 737 mmHg 89%
    21:00 +25°C° 0 mm 1 m/S 738 mmHg 90%
    22:00 +25°C° 0 mm 2 m/S 738 mmHg 90%
    23:00 +25°C° 0 mm 2 m/S 738 mmHg 90%

    22 Oktober, Dienstag

    Zeit Temperatur Niederschläge Wind Luftdruck Luftfeuchtigkeit
    00:00 +25°C° 0 mm 2 m/S 738 mmHg 90%
    01:00 +25°C° 1.3 mm 2 m/S 738 mmHg 92%
    02:00 +24°C° 1.3 mm 2 m/S 737 mmHg 94%
    03:00 +24°C° 1.3 mm 2 m/S 737 mmHg 96%
    04:00 +24°C° 0 mm 2 m/S 737 mmHg 96%
    05:00 +24°C° 0 mm 2 m/S 737 mmHg 96%
    06:00 +24°C° 0 mm 2 m/S 737 mmHg 96%
    07:00 +25°C° 0 mm 2 m/S 738 mmHg 92%
    08:00 +27°C° 0 mm 2 m/S 738 mmHg 87%
    09:00 +28°C° 0 mm 2 m/S 738 mmHg 83%
    10:00 +30°C° 0 mm 2 m/S 738 mmHg 77%
    11:00 +31°C° 0 mm 1 m/S 737 mmHg 70%
    12:00 +33°C° 0 mm 1 m/S 737 mmHg 63%
    13:00 +33°C° 0 mm 1 m/S 736 mmHg 63%
    14:00 +31°C° 0 mm 0 m/S 735 mmHg 62%
    15:00 +31°C° 0 mm 0 m/S 735 mmHg 62%
    16:00 +31°C° 0.2 mm 1 m/S 735 mmHg 69%
    17:00 +29°C° 0.2 mm 1 m/S 735 mmHg 76%
    18:00 +28°C° 0.2 mm 2 m/S 736 mmHg 83%
    19:00 +27°C° 0.6 mm 2 m/S 736 mmHg 87%
    20:00 +26°C° 0.6 mm 2 m/S 737 mmHg 91%
    21:00 +26°C° 0.6 mm 2 m/S 737 mmHg 95%
    22:00 +25°C° 0 mm 2 m/S 737 mmHg 95%
    23:00 +25°C° 0 mm 2 m/S 737 mmHg 96%
    Mehr zeigen